Location: Harwich
(41.7160°N, 69.9939°W)
Time: 15:19:15
(UTC+02:00)

Vanguard 1 Rocket - Visible Passes

Search period start: 17 July 2024 00:00
Search period end: 27 July 2024 00:00
Orbit: 650 x 4219 km, 34.3° (Epoch: 16 July)

Date Brightness Start Highest point End Pass type
(mag) Time Alt. Az. Time Alt. Az. Time Alt. Az.
17 Jul 7.9 04:06:14 10° WSW 04:11:13 45° S 04:16:44 19° ESE visible
17 Jul 8.9 06:29:47 10° W 06:47:56 12° SE 06:48:56 10° SE visible
17 Jul 10.2 09:05:24 22° SSW 09:05:24 22° SSW 09:15:51 10° SSE visible
18 Jul 7.8 02:55:22 10° SW 02:59:38 36° SSE 03:05:45 10° E visible
18 Jul 8.2 05:18:36 10° WSW 05:24:18 44° S 05:24:51 44° S visible
18 Jul 10.3 07:59:52 15° SSE 07:59:52 15° SSE 08:02:42 10° SSE visible
18 Jul 10.7 10:17:17 11° SW 10:18:10 11° SSW 10:21:13 10° SSW visible
19 Jul 7.8 04:07:33 10° WSW 04:12:24 44° S 04:16:06 26° ESE visible
19 Jul 9.4 06:31:21 10° WSW 06:53:55 - SE 06:33:14 19° WSW visible
19 Jul 10.9 09:11:19 12° S 09:11:19 12° S 09:13:24 10° S visible
20 Jul 7.7 02:56:35 10° WSW 03:00:49 38° S 03:06:47 10° ESE visible
20 Jul 8.4 05:20:03 10° WSW 05:24:38 37° SSW 05:24:38 37° SSW visible
21 Jul 7.9 04:08:56 10° WSW 04:13:38 40° S 04:16:06 30° SE visible
21 Jul 9.8 06:33:06 10° WSW 06:33:15 11° WSW 06:33:15 11° WSW visible
22 Jul 7.6 02:57:50 10° WSW 03:02:01 38° S 03:07:38 10° ESE visible
22 Jul 8.7 05:21:37 10° WSW 05:24:48 27° SW 05:24:48 27° SW visible
23 Jul 8.0 04:10:21 10° WSW 04:14:52 35° S 04:16:23 31° SSE visible
24 Jul 7.7 02:59:08 10° WSW 03:03:14 36° S 03:08:01 13° ESE visible
24 Jul 9.1 05:23:18 10° WSW 05:25:10 18° SW 05:25:10 18° SW visible
25 Jul 8.2 04:11:52 10° WSW 04:16:05 29° S 04:16:51 28° S visible
26 Jul 7.8 03:00:29 10° WSW 03:04:28 32° S 03:08:32 14° SE visible
26 Jul 9.5 05:25:17 10° WSW 05:25:42 12° WSW 05:25:42 12° WSW visible
